1496876401.15,44304,18.06,73942.5,-0.01,-2.99,-3.07,0,*50
1496876402.36,44305,18.06,73946.0,-0.01,-2.99,-3.07,0,*51
1496876403.54,44306,18.06,73946.8,-0.03,-2.99,-3.03,0,*54
1496876404.72,44307,18.06,73946.5,-0.03,-2.91,-3.03,0,*5D
1496876405.96,44308,18.06,73946.5,-0.01,-2.75,-2.99,0,*58
1496876407.2,44309,18.06,73942.5,-0.01,-2.63,-2.95,0,*52
1496876408.43,44310,18.06,73944.0,-0.01,-2.71,-2.87,0,*5A
1496876409.64,44311,18.06,73946.3,-0.03,-2.63,-2.91,0,*5D
1496876410.84,44312,18.06,73944.0,-0.03,-2.67,-2.91,0,*5A
1496876412.04,44313,18.06,73944.0,-0.03,-2.75,-2.91,0,*58
1496876413.22,44314,18.06,73944.5,-0.03,-2.87,-2.91,0,*52
1496876414.45,44315,18.06,73944.3,-0.01,-2.75,-2.95,0,*58
1496876415.69,44316,18.06,73946.3,-0.01,-2.75,-2.83,0,*5C
1496876416.89,44317,18.06,73946.0,-0.01,-2.83,-2.83,0,*54
1496876418.1,44318,18.06,73942.3,-0.03,-2.75,-2.87,0,*54
1496876419.33,44319,18.06,73942.8,-0.01,-2.71,-2.87,0,*53
1496876420.53,44320,18.06,73942.3,-0.03,-2.75,-2.91,0,*58
1496876421.74,44321,18.06,73944.0,-0.03,-2.63,-2.87,0,*59
1496876422.97,44322,18.06,73946.0,-0.01,-2.51,-2.87,0,*59
1496876424.18,44323,18.06,73946.5,-0.03,-2.55,-2.91,0,*59
1496876425.35,44324,18.06,73942.3,-0.03,-2.43,-2.91,0,*59
1496876426.53,44325,18.06,73946.8,-0.03,-2.35,-2.91,0,*59
1496876427.7,44326,18.06,73942.3,-0.03,-2.35,-2.79,0,*5C
1496876428.94,44327,18.06,73946.8,-0.01,-2.23,-2.75,0,*54
1496876430.11,44328,18.06,73944.8,-0.03,-2.27,-2.79,0,*51
1496876431.32,44329,18.06,73946.3,-0.03,-2.23,-2.75,0,*58
1496876432.5,44330,18.06,73946.5,-0.03,-2.15,-2.79,0,*59
1496876433.73,44331,18.06,73946.3,-0.03,-2.11,-2.67,0,*53
1496876435.0,44332,18.06,73944.8,-0.01,-1.99,-2.59,0,*5C
1496876436.24,44333,18.06,73944.8,-0.03,-1.99,-2.63,0,*56
1496876437.47,44334,18.06,73944.5,-0.01,-1.87,-2.39,0,*53
1496876438.65,44335,18.06,73946.5,-0.03,-1.75,-2.43,0,*50
1496876439.86,44336,18.06,73944.8,-0.01,-1.59,-2.31,0,*5A
1496876441.03,44337,18.06,73946.5,-0.03,-1.63,-2.27,0,*57
1496876442.21,44338,18.06,73946.5,-0.03,-1.59,-2.23,0,*55
1496876443.42,44339,18.06,73944.3,-0.03,-1.51,-2.03,0,*5E
1496876444.65,44340,18.06,73942.8,-0.03,-1.47,-1.87,0,*58
1496876445.86,44341,18.06,73946.5,-0.03,-1.39,-1.75,0,*5D
1496876447.07,44342,18.06,73946.0,-0.03,-1.47,-1.63,0,*50
1496876448.28,44343,18.06,73946.5,-0.03,-1.39,-1.59,0,*51
1496876449.55,44344,18.06,73946.5,-0.01,-1.43,-1.47,0,*56
1496876450.76,44345,18.06,73946.8,-0.03,-1.39,-1.51,0,*5F
1496876451.99,44346,18.06,73946.3,-0.01,-1.43,-1.55,0,*57
1496876453.2,44347,18.06,73946.5,-0.03,-1.39,-1.51,0,*5D
1496876454.41,44348,18.06,73946.3,-0.03,-1.35,-1.51,0,*5E
1496876455.65,44349,18.06,73944.5,-0.01,-1.25,-1.47,0,*5B
1496876456.85,44350,18.06,73946.5,-0.03,-1.35,-1.51,0,*57
1496876458.04,44351,18.06,73942.3,-0.03,-1.29,-1.51,0,*5B
1496876459.3,44352,18.06,73944.8,-0.01,-1.13,-1.47,0,*54
1496876460.49,44353,18.06,73946.3,-0.03,-1.17,-1.51,0,*54
1496876461.7,44354,18.06,73946.3,-0.03,-1.13,-1.51,0,*57
1496876462.96,44355,18.06,73946.3,-0.01,-1.01,-1.35,0,*55
1496876464.2,44356,18.06,73944.5,-0.03,-1.05,-1.35,0,*50
1496876465.43,44357,18.06,73944.5,-0.03,-1.05,-1.35,0,*51
1496876466.66,44358,18.06,73946.3,-0.01,-0.89,-1.33,0,*6F
1496876467.9,44359,18.06,73944.5,-0.03,-1.01,-1.35,0,*5B
1496876469.12,44360,18.06,73942.0,-0.01,-0.97,-1.33,0,*6B
1496876470.35,44361,18.06,73944.0,-0.01,-0.97,-1.25,0,*6D
1496876471.58,44362,18.06,73946.8,-0.01,-0.97,-1.33,0,*69
1496876472.81,44363,18.06,73944.0,-0.01,-0.97,-1.25,0,*6F
1496876474.01,44364,18.06,73944.0,-0.03,-1.01,-1.29,0,*58
1496876475.25,44365,18.06,73944.3,-0.01,-0.97,-1.21,0,*6D
1496876476.48,44366,18.06,73946.0,-0.01,-0.89,-1.21,0,*61
1496876477.72,44367,18.06,73946.8,-0.01,-0.97,-1.21,0,*6F
1496876478.96,44368,18.06,73944.5,-0.01,-0.89,-1.13,0,*6E
1496876480.16,44369,18.06,73944.0,-0.03,-0.93,-1.17,0,*62
1496876481.37,44370,18.06,73946.3,-0.03,-1.01,-1.17,0,*50
1496876482.62,44371,18.06,73940.8,-0.01,-0.97,-1.13,0,*69
1496876483.82,44372,18.06,73946.5,-0.03,-0.93,-1.17,0,*68
1496876485.02,44373,18.06,73940.8,-0.03,-0.89,-1.17,0,*62
1496876486.25,44374,18.06,73944.8,-0.03,-1.01,-1.13,0,*50
1496876487.47,44375,18.06,73944.8,-0.03,-0.93,-1.13,0,*6B
1496876488.72,44376,18.06,73946.5,-0.01,-0.89,-1.13,0,*61
1496876489.97,44377,18.06,73944.8,-0.01,-0.97,-1.13,0,*6F
1496876491.2,44378,18.06,73946.5,-0.01,-0.97,-1.17,0,*64
1496876492.45,44379,18.06,73942.3,-0.01,-0.89,-1.09,0,*65
1496876493.7,44380,18.06,73944.5,-0.01,-0.85,-1.09,0,*6F
1496876494.95,44381,18.06,73944.5,-0.01,-0.85,-1.09,0,*6E
1496876496.2,44382,18.06,73944.5,-0.01,-0.89,-1.09,0,*61
1496876497.45,44383,18.06,73944.3,-0.01,-0.89,-1.01,0,*68
1496876498.7,44384,18.06,73946.5,-0.01,-0.89,-1.09,0,*67
1496876499.96,44385,18.06,73942.0,-0.01,-0.89,-1.09,0,*66
1496876501.18,44386,18.06,73942.8,0.01,-0.97,-1.09,0,*47
1496876502.4,44387,18.06,73944.0,0.05,-0.85,-1.05,0,*4D
1496876503.62,44388,18.06,73940.8,0.01,-0.97,-1.09,0,*49
1496876504.84,44389,18.06,73946.3,0.01,-1.01,-1.09,0,*76
1496876506.06,44390,18.06,73942.8,0.01,-0.97,-1.09,0,*40
1496876507.28,44391,18.06,73946.3,0.01,-1.01,-1.13,0,*74
1496876508.51,44392,18.06,73944.8,0.01,-1.01,-1.13,0,*77
1496876509.73,44393,18.06,73944.8,0.05,-0.97,-1.09,0,*47
1496876510.93,44394,18.06,73944.8,0.01,-1.09,-1.21,0,*78
1496876512.15,44395,18.06,73944.0,0.01,-1.01,-1.13,0,*70
1496876513.37,44396,18.06,73942.3,0.01,-1.09,-1.13,0,*7B
1496876514.59,44397,18.06,73946.8,0.05,-1.05,-1.09,0,*79
1496876515.79,44398,18.06,73946.5,0.01,-1.09,-1.21,0,*74
1496876517.01,44399,18.06,73944.5,0.01,-1.09,-1.09,0,*7F
1496876518.24,44400,18.06,73946.5,0.05,-1.13,-1.09,0,*77
1496876519.46,44401,18.06,73944.8,0.01,-1.09,-1.13,0,*72
1496876520.68,44402,18.06,73946.3,0.01,-1.09,-1.13,0,*71
1496876521.89,44403,18.06,73942.3,0.01,-1.09,-1.13,0,*70
1496876523.12,44404,18.06,73944.8,0.01,-1.05,-1.13,0,*7B
1496876524.32,44405,18.06,73944.0,0.01,-1.09,-1.21,0,*77
1496876525.52,44406,18.06,73946.8,0.05,-1.09,-1.17,0,*75
1496876526.72,44407,18.06,73944.0,0.01,-1.09,-1.21,0,*75
1496876527.94,44408,18.06,73940.8,0.01,-1.09,-1.13,0,*7B
1496876529.16,44409,18.06,73944.0,0.01,-1.09,-1.13,0,*7A
1496876530.38,44410,18.06,73940.8,0.05,-1.05,-1.09,0,*71
1496876531.61,44411,18.06,73944.8,0.05,-1.05,-1.09,0,*70
1496876532.81,44412,18.06,73946.0,0.01,-1.09,-1.21,0,*71
1496876534.03,44413,18.06,73946.8,0.01,-1.09,-1.13,0,*71
1496876535.25,44414,18.06,73946.5,0.01,-1.01,-1.09,0,*75
1496876536.48,44415,18.06,73944.5,0.01,-1.01,-1.09,0,*74
1496876537.7,44416,18.06,73946.5,0.01,-1.01,-1.13,0,*7C
1496876538.91,44417,18.06,73942.3,0.05,-0.97,-0.97,0,*7A
1496876540.14,44418,18.06,73942.0,0.05,-1.09,-1.05,0,*79
1496876541.36,44419,18.06,73946.5,0.01,-1.01,-1.13,0,*73
1496876542.58,44420,18.06,73946.8,0.01,-1.09,-1.13,0,*71
1496876543.8,44421,18.06,73946.3,0.05,-0.97,-1.05,0,*45
1496876545.03,44422,18.06,73942.5,0.01,-1.01,-1.09,0,*70
1496876546.27,44423,18.06,73946.5,0.07,-0.93,-1.13,0,*46
1496876547.47,44424,18.06,73944.0,0.05,-0.97,-1.17,0,*43
1496876548.69,44425,18.06,73944.0,0.05,-0.97,-1.09,0,*4D
1496876549.91,44426,18.06,73944.0,0.05,-0.97,-1.05,0,*42
1496876551.14,44427,18.06,73946.3,0.05,-0.97,-1.05,0,*43
1496876552.36,44428,18.06,73944.5,0.05,-0.97,-1.05,0,*4C
1496876553.61,44429,18.06,73946.3,0.07,-0.93,-1.01,0,*4F
1496876554.85,44430,18.06,73944.3,0.07,-0.89,-1.01,0,*4C
1496876556.07,44431,18.06,73944.0,0.05,-0.93,-1.05,0,*40
1496876557.29,44432,18.06,73946.5,0.05,-0.85,-1.05,0,*44
1496876558.5,44433,18.06,73942.8,0.05,-0.93,-0.97,0,*78
1496876559.72,44434,18.06,73946.8,0.05,-0.85,-0.97,0,*78
1496876560.94,44435,18.06,73942.5,0.07,-0.81,-1.01,0,*41
1496876562.16,44436,18.06,73944.8,0.07,-0.81,-0.89,0,*73
1496876563.38,44437,18.06,73946.3,0.07,-0.69,-0.93,0,*7F
1496876564.6,44438,18.06,73944.0,0.07,-0.69,-0.89,0,*7B
1496876565.82,44439,18.06,73944.3,0.07,-0.69,-0.89,0,*7A
1496876567.03,44440,18.06,73948.0,0.07,-0.77,-0.89,0,*7B
1496876568.25,44441,18.06,73942.3,0.07,-0.69,-0.89,0,*75
1496876569.45,44442,18.06,73942.5,0.07,-0.69,-0.81,0,*7E
1496876570.65,44443,18.06,73942.5,0.07,-0.69,-0.81,0,*7F
1496876571.85,44444,18.06,73946.3,0.07,-0.77,-0.81,0,*77
1496876573.04,44445,18.06,73942.8,0.07,-0.77,-0.81,0,*76
1496876574.21,44446,18.06,73944.8,0.09,-0.69,-0.77,0,*7D
1496876575.41,44447,18.06,73944.5,0.07,-0.77,-0.77,0,*7D
1496876576.58,44448,18.06,73944.5,0.09,-0.69,-0.81,0,*7A
1496876577.78,44449,18.06,73940.3,0.07,-0.77,-0.77,0,*73
1496876578.95,44450,18.06,73940.8,0.09,-0.81,-0.81,0,*75
1496876580.16,44451,18.06,73946.5,0.05,-0.85,-0.93,0,*7F
1496876581.38,44452,18.06,73944.5,0.07,-0.77,-0.89,0,*78
1496876582.57,44453,18.06,73946.8,0.07,-0.77,-0.81,0,*71
1496876583.79,44454,18.06,73946.3,0.07,-0.77,-0.89,0,*7E
1496876584.99,44455,18.06,73946.5,0.07,-0.69,-0.81,0,*78
1496876586.18,44456,18.06,73946.8,0.07,-0.77,-0.81,0,*74
1496876587.38,44457,18.06,73944.5,0.07,-0.69,-0.81,0,*7A
1496876588.55,44458,18.06,73942.8,0.09,-0.69,-0.81,0,*7B
1496876589.75,44459,18.06,73946.0,0.07,-0.77,-0.77,0,*72
1496876590.95,44460,18.06,73944.0,0.07,-0.77,-0.77,0,*78
1496876592.16,44461,18.06,73944.0,0.07,-0.77,-0.89,0,*78
1496876593.36,44462,18.06,73946.5,0.07,-0.69,-0.81,0,*7C
1496876594.56,44463,18.06,73944.3,0.07,-0.69,-0.69,0,*7B
1496876595.76,44464,18.06,73946.8,0.07,-0.77,-0.77,0,*7C
1496876596.95,44465,18.06,73942.5,0.07,-0.77,-0.81,0,*74
1496876598.15,44466,18.06,73944.3,0.07,-0.81,-0.81,0,*7E
1496876599.36,44467,18.06,73946.8,0.07,-0.81,-0.77,0,*76
1496876600.55,44468,18.06,73946.8,0.09,-0.89,-0.77,0,*7F
1496876601.77,44469,18.06,73942.3,0.07,-0.89,-0.77,0,*70
1496876602.94,44470,18.06,73944.8,0.09,-0.81,-0.81,0,*77
1496876604.14,44471,18.06,73944.5,0.07,-0.81,-0.81,0,*78
1496876605.38,44472,18.06,73944.5,0.07,-0.89,-0.89,0,*7B
1496876606.63,44473,18.06,73946.3,0.07,-0.89,-0.89,0,*7A
1496876607.85,44474,18.06,73946.5,0.07,-0.93,-0.81,0,*7E
1496876609.03,44475,18.06,73950.5,0.09,-0.93,-0.81,0,*71
1496876610.28,44476,18.06,73942.8,0.07,-0.89,-0.89,0,*7F
1496876611.52,44477,18.06,73944.3,0.07,-0.93,-0.89,0,*75
1496876612.76,44478,18.06,73944.3,0.07,-1.01,-0.89,0,*40
1496876614.01,44479,18.06,73944.0,0.07,-1.01,-0.89,0,*41
1496876615.22,44480,18.06,73944.3,0.09,-0.93,-0.93,0,*78
1496876616.44,44481,18.06,73946.8,0.09,-1.01,-1.01,0,*79
1496876617.69,44482,18.06,73942.0,0.07,-1.05,-0.93,0,*4A
1496876618.91,44483,18.06,73944.0,0.09,-1.01,-0.93,0,*41
1496876620.13,44484,18.06,73946.3,0.09,-1.01,-1.01,0,*7C
1496876621.38,44485,18.06,73944.3,0.07,-1.05,-0.93,0,*4D
1496876622.64,44486,18.06,73944.8,0.07,-1.01,-1.01,0,*70
1496876623.89,44487,18.06,73946.3,0.07,-1.13,-1.01,0,*72
1496876625.14,44488,18.06,73946.3,0.07,-1.05,-0.93,0,*40
1496876626.35,44489,18.06,73944.5,0.09,-1.17,-1.05,0,*72
1496876627.57,44490,18.06,73946.3,0.09,-1.05,-0.93,0,*47
1496876628.83,44491,18.06,73944.3,0.07,-1.05,-1.01,0,*72
1496876630.05,44492,18.06,73942.5,0.09,-1.13,-1.01,0,*78
1496876631.28,44493,18.06,73944.5,0.09,-1.13,-1.05,0,*7D
1496876632.53,44494,18.06,73944.5,0.07,-1.13,-1.13,0,*73
1496876633.76,44495,18.06,73942.5,0.07,-1.25,-1.13,0,*77
1496876634.99,44496,18.06,73944.3,0.07,-1.17,-1.13,0,*75
1496876636.25,44497,18.06,73942.5,0.07,-1.05,-1.05,0,*70
1496876637.5,44498,18.06,73944.5,0.07,-1.13,-1.13,0,*7F
1496876638.67,44499,18.06,73944.0,0.09,-1.25,-1.17,0,*71
1496876639.88,44500,18.06,73944.5,0.07,-1.25,-1.17,0,*7E
1496876641.09,44501,18.06,73946.5,0.07,-1.17,-1.17,0,*7E
1496876642.29,44502,18.06,73944.5,0.07,-1.25,-1.25,0,*7D
1496876643.49,44503,18.06,73942.5,0.07,-1.25,-1.25,0,*7C
1496876644.72,44504,18.06,73946.8,0.07,-1.35,-1.25,0,*7A
1496876645.93,44505,18.06,73944.5,0.07,-1.17,-1.17,0,*7A
1496876647.14,44506,18.06,73946.5,0.07,-1.17,-1.17,0,*79
1496876648.35,44507,18.06,73946.3,0.07,-1.17,-1.17,0,*78
1496876649.55,44508,18.06,73946.3,0.07,-1.25,-1.25,0,*77
1496876650.76,44509,18.06,73946.0,0.07,-1.17,-1.25,0,*77
1496876651.97,44510,18.06,73940.8,0.07,-1.17,-1.17,0,*7E
1496876653.18,44511,18.06,73944.0,0.07,-1.17,-1.17,0,*7F
1496876654.39,44512,18.06,73944.0,0.07,-1.17,-1.17,0,*7C
1496876655.57,44513,18.06,73944.5,0.09,-1.17,-1.17,0,*73
1496876656.77,44514,18.06,73946.0,0.05,-1.13,-1.17,0,*7C
1496876658.03,44515,18.06,73942.5,0.07,-1.13,-1.13,0,*7B
1496876659.28,44516,18.06,73948.0,0.07,-1.05,-1.13,0,*7F
1496876660.54,44517,18.06,73946.5,0.07,-1.05,-1.05,0,*79
1496876661.8,44518,18.06,73944.8,0.07,-1.13,-1.05,0,*71
1496876663.03,44519,18.06,73944.0,0.07,-1.13,-1.17,0,*73
1496876664.26,44520,18.06,73946.5,0.07,-1.05,-1.17,0,*7E
1496876665.49,44521,18.06,73946.0,0.07,-1.13,-1.25,0,*79
1496876666.75,44522,18.06,73944.5,0.07,-1.05,-1.13,0,*78
1496876668.01,44523,18.06,73944.3,0.07,-1.05,-1.05,0,*7E
1496876669.26,44524,18.06,73944.0,0.07,-1.13,-1.13,0,*79
1496876670.49,44525,18.06,73946.3,0.07,-1.13,-1.17,0,*7C
1496876671.72,44526,18.06,73944.5,0.07,-1.13,-1.25,0,*7E
1496876672.94,44527,18.06,73944.0,0.07,-1.13,-1.25,0,*7F
1496876674.15,44528,18.06,73946.5,0.07,-1.25,-1.17,0,*74
1496876675.33,44529,18.06,73944.5,0.05,-1.17,-1.21,0,*73
1496876676.53,44530,18.06,73944.0,0.05,-1.09,-1.21,0,*74
1496876677.75,44531,18.06,73946.3,0.05,-1.09,-1.09,0,*7F
1496876678.99,44532,18.06,73946.3,0.05,-1.05,-1.05,0,*7C
1496876680.22,44533,18.06,73944.3,0.05,-1.05,-1.05,0,*7D
1496876681.47,44534,18.06,73944.0,0.07,-1.01,-1.01,0,*78
1496876682.7,44535,18.06,73944.8,0.05,-0.97,-1.05,0,*41
1496876683.93,44536,18.06,73944.3,0.05,-1.05,-1.05,0,*78
1496876685.15,44537,18.06,73944.0,0.05,-1.05,-1.09,0,*75
1496876686.38,44538,18.06,73942.3,0.05,-1.09,-1.05,0,*7A
1496876687.63,44539,18.06,73946.0,0.07,-1.01,-1.01,0,*75
1496876688.89,44540,18.06,73946.3,0.07,-1.01,-1.01,0,*7B
1496876690.13,44541,18.06,73944.5,0.07,-0.93,-0.93,0,*7A
1496876691.38,44542,18.06,73946.0,0.07,-1.01,-1.01,0,*79
1496876692.63,44543,18.06,73946.8,0.07,-1.01,-1.01,0,*78
1496876693.89,44544,18.06,73944.3,0.07,-1.01,-1.05,0,*7B
1496876695.15,44545,18.06,73946.5,0.07,-1.05,-1.13,0,*79
1496876696.37,44546,18.06,73944.8,0.09,-1.13,-1.13,0,*73
1496876697.62,44547,18.06,73944.5,0.07,-1.13,-1.13,0,*7C
1496876698.88,44548,18.06,73946.8,0.07,-1.05,-1.05,0,*73
1496876700.13,44549,18.06,73946.5,0.07,-1.05,-1.13,0,*75
1496876701.39,44550,18.06,73946.5,0.07,-1.05,-1.13,0,*7D
1496876702.65,44551,18.06,73946.3,0.07,-1.05,-1.05,0,*7B
1496876703.91,44552,18.06,73944.3,0.07,-1.05,-1.05,0,*78
1496876705.13,44553,18.06,73944.3,0.05,-1.09,-1.05,0,*77
1496876706.39,44554,18.06,73946.0,0.07,-1.05,-1.01,0,*7A
1496876707.57,44555,18.06,73944.8,0.05,-1.17,-1.17,0,*7D
1496876708.77,44556,18.06,73944.0,0.05,-1.21,-1.09,0,*74
1496876709.95,44557,18.06,73946.3,0.05,-1.21,-1.17,0,*7A
1496876711.16,44558,18.06,73944.3,0.05,-1.17,-1.09,0,*7F
1496876712.36,44559,18.06,73944.3,0.05,-1.17,-1.05,0,*72
1496876713.55,44560,18.06,73944.8,0.05,-1.17,-1.17,0,*7B
1496876714.73,44561,18.06,73946.8,0.05,-1.17,-1.17,0,*7A
1496876715.93,44562,18.06,73946.0,0.05,-1.17,-1.09,0,*76
1496876717.11,44563,18.06,73944.8,0.05,-1.21,-1.17,0,*7D
1496876718.29,44564,18.06,73944.5,0.05,-1.21,-1.17,0,*7A
1496876719.47,44565,18.06,73948.0,0.05,-1.29,-1.17,0,*73
1496876720.65,44566,18.06,73946.5,0.05,-1.21,-1.17,0,*78
1496876721.85,44567,18.06,73950.0,0.05,-1.39,-1.17,0,*70
1496876723.06,44568,18.06,73948.8,0.05,-1.39,-1.29,0,*72
1496876724.24,44569,18.06,73946.8,0.05,-1.33,-1.29,0,*79
1496876725.43,44570,18.06,73948.0,0.01,-1.35,-1.25,0,*7F
1496876726.61,44571,18.06,73946.5,0.05,-1.29,-1.29,0,*7B
1496876727.84,44572,18.06,73944.5,0.01,-1.35,-1.35,0,*7C
1496876729.02,44573,18.06,73946.5,0.01,-1.29,-1.21,0,*75
1496876730.2,44574,18.06,73944.3,0.05,-1.29,-1.29,0,*7E
1496876731.38,44575,18.06,73948.3,0.05,-1.21,-1.29,0,*77
1496876732.55,44576,18.06,73944.3,0.05,-1.25,-1.33,0,*7B
1496876733.73,44577,18.06,73946.0,0.01,-1.21,-1.21,0,*79
1496876734.91,44578,18.06,73946.3,0.05,-1.21,-1.21,0,*72
1496876736.09,44579,18.06,73948.0,0.05,-1.25,-1.33,0,*74
1496876737.26,44580,18.06,73944.5,0.01,-1.25,-1.25,0,*71
1496876738.44,44581,18.06,73946.8,0.05,-1.21,-1.17,0,*71
1496876739.61,44582,18.06,73946.5,0.01,-1.21,-1.25,0,*77
1496876740.79,44583,18.06,73944.5,0.01,-1.21,-1.33,0,*71
1496876741.97,44584,18.06,73948.5,0.05,-1.21,-1.29,0,*79
1496876743.15,44585,18.06,73946.5,0.05,-1.21,-1.21,0,*70
1496876744.33,44586,18.06,73948.0,0.05,-1.21,-1.17,0,*76
1496876745.54,44587,18.06,73944.0,0.01,-1.33,-1.35,0,*70
1496876746.71,44588,18.06,73948.3,0.05,-1.29,-1.29,0,*7D
1496876747.89,44589,18.06,73946.3,0.05,-1.29,-1.29,0,*7C
1496876749.07,44590,18.06,73946.0,0.05,-1.29,-1.29,0,*74
1496876750.25,44591,18.06,73950.8,0.05,-1.21,-1.29,0,*7D
1496876751.42,44592,18.06,73950.5,0.01,-1.25,-1.33,0,*75
1496876752.6,44593,18.06,73950.0,0.05,-1.29,-1.29,0,*77
1496876753.78,44594,18.06,73944.3,0.05,-1.21,-1.29,0,*78
1496876754.95,44595,18.06,73944.0,0.01,-1.25,-1.33,0,*72
1496876756.12,44596,18.06,73948.5,0.01,-1.25,-1.25,0,*76
1496876757.3,44597,18.06,73950.8,0.01,-1.33,-1.33,0,*77
1496876758.47,44598,18.06,73946.3,0.01,-1.25,-1.25,0,*78
1496876759.67,44599,18.06,73950.8,0.01,-1.43,-1.25,0,*79
1496876760.9,44600,18.06,73946.8,0.05,-1.39,-1.39,0,*7E
1496876762.13,44601,18.06,73944.3,0.01,-1.35,-1.43,0,*7A
1496876763.33,44602,18.06,73948.0,0.01,-1.35,-1.33,0,*7E
1496876764.5,44603,18.06,73950.3,0.01,-1.33,-1.25,0,*7E
1496876765.68,44604,18.06,73950.5,0.01,-1.33,-1.25,0,*79
1496876766.85,44605,18.06,73946.3,0.05,-1.29,-1.25,0,*77
1496876768.08,44606,18.06,73946.8,0.01,-1.43,-1.43,0,*7C
1496876769.26,44607,18.06,73948.0,0.01,-1.33,-1.33,0,*7D
1496876770.43,44608,18.06,73950.3,0.01,-1.33,-1.33,0,*72
1496876771.61,44609,18.06,73946.0,0.01,-1.25,-1.33,0,*74
1496876772.81,44610,18.06,73948.0,0.01,-1.33,-1.43,0,*7C
1496876774.02,44611,18.06,73948.5,0.05,-1.33,-1.39,0,*74
1496876775.25,44612,18.06,73950.8,0.01,-1.35,-1.43,0,*78
1496876776.47,44613,18.06,73950.5,0.01,-1.35,-1.43,0,*79
1496876777.65,44614,18.06,73948.5,0.01,-1.33,-1.33,0,*7F
1496876778.85,44615,18.06,73948.0,0.01,-1.25,-1.35,0,*7F
1496876780.02,44616,18.06,73950.3,0.01,-1.25,-1.33,0,*7A
1496876781.23,44617,18.06,73946.3,0.01,-1.25,-1.35,0,*7D
1496876782.43,44618,18.06,73948.5,0.01,-1.33,-1.43,0,*74
1496876783.69,44619,18.06,73950.5,-0.01,-1.35,-1.35,0,*5F
1496876784.86,44620,18.06,73948.5,0.01,-1.25,-1.33,0,*7F
1496876786.04,44621,18.06,73948.5,0.01,-1.29,-1.29,0,*79
1496876787.24,44622,18.06,73948.5,0.01,-1.25,-1.35,0,*7B
1496876788.47,44623,18.06,73950.8,0.01,-1.43,-1.43,0,*7B
1496876789.68,44624,18.06,73950.0,0.01,-1.33,-1.43,0,*7B
1496876790.91,44625,18.06,73950.8,-0.01,-1.25,-1.35,0,*51
1496876792.15,44626,18.06,73946.8,-0.01,-1.33,-1.43,0,*54
1496876793.41,44627,18.06,73950.3,-0.01,-1.35,-1.43,0,*53
1496876794.67,44628,18.06,73948.5,-0.01,-1.35,-1.43,0,*5C
1496876795.9,44629,18.06,73948.0,-0.01,-1.25,-1.35,0,*5D
1496876797.14,44630,18.06,73950.8,-0.01,-1.25,-1.35,0,*55
1496876798.38,44631,18.06,73954.0,-0.01,-1.33,-1.35,0,*53
1496876799.58,44632,18.06,73950.8,-0.01,-1.25,-1.33,0,*51
1496876800.82,44633,18.06,73950.0,-0.03,-1.35,-1.47,0,*50
1496876802.08,44634,18.06,73950.3,-0.01,-1.43,-1.43,0,*50
1496876803.34,44635,18.06,73948.0,-0.01,-1.35,-1.43,0,*50
1496876804.6,44636,18.06,73948.3,-0.01,-1.43,-1.35,0,*53
1496876805.84,44637,18.06,73948.8,-0.03,-1.39,-1.35,0,*5D
1496876807.05,44638,18.06,73950.8,-0.03,-1.29,-1.35,0,*53
1496876808.26,44639,18.06,73946.0,-0.01,-1.33,-1.33,0,*5D
1496876809.52,44640,18.06,73952.3,-0.01,-1.35,-1.43,0,*52
1496876810.76,44641,18.06,73948.8,-0.03,-1.39,-1.39,0,*50
1496876812.02,44642,18.06,73948.8,-0.01,-1.35,-1.35,0,*51
1496876813.27,44643,18.06,73950.8,-0.01,-1.35,-1.35,0,*50
1496876814.53,44644,18.06,73948.5,-0.01,-1.35,-1.35,0,*57
1496876815.77,44645,18.06,73948.8,-0.03,-1.35,-1.47,0,*51
1496876817.03,44646,18.06,73954.5,-0.01,-1.35,-1.43,0,*54
1496876818.26,44647,18.06,73950.5,-0.01,-1.25,-1.43,0,*54
1496876819.5,44648,18.06,73950.0,-0.01,-1.25,-1.43,0,*5B
1496876820.73,44649,18.06,73950.5,-0.01,-1.25,-1.35,0,*5B
1496876821.94,44650,18.06,73950.5,-0.03,-1.25,-1.39,0,*5D
1496876823.15,44651,18.06,73948.8,-0.03,-1.17,-1.39,0,*5D
1496876824.41,44652,18.06,73948.8,-0.01,-1.13,-1.43,0,*55
1496876825.63,44653,18.0,73946.3,-0.03,-1.17,-1.39,0,*5F
1496876826.85,44654,18.06,73950.5,-0.03,-1.17,-1.39,0,*58
1496876828.08,44655,18.06,73954.8,-0.01,-1.21,-1.43,0,*53
1496876829.32,44656,18.06,73952.3,-0.01,-1.25,-1.47,0,*50
1496876830.53,44657,18.06,73950.8,-0.03,-1.39,-1.63,0,*58
1496876831.74,44658,18.06,73950.0,-0.03,-1.43,-1.67,0,*5E
1496876832.95,44659,18.06,73950.3,-0.03,-1.47,-1.63,0,*5F
1496876834.17,44660,18.06,73948.3,-0.03,-1.39,-1.63,0,*5C
1496876835.38,44661,18.06,73952.0,-0.03,-1.39,-1.63,0,*5D
1496876836.59,44662,18.06,73952.0,-0.03,-1.47,-1.63,0,*57
1496876837.82,44663,18.06,73948.8,-0.03,-1.47,-1.87,0,*5C
1496876839.03,44664,18.06,73948.0,-0.03,-1.75,-2.03,0,*55
1496876840.24,44665,18.06,73950.0,-0.03,-1.63,-1.91,0,*5B
1496876841.44,44666,18.06,73952.5,-0.01,-1.55,-1.75,0,*55
1496876842.65,44667,18.06,73954.0,-0.03,-1.47,-1.75,0,*55
1496876843.87,44668,18.06,73952.3,-0.03,-1.47,-1.67,0,*59
1496876845.04,44669,18.06,73952.8,-0.03,-1.51,-1.63,0,*5B
1496876846.22,44670,18.06,73952.5,-0.03,-1.51,-1.67,0,*57
1496876847.4,44671,18.06,73954.5,-0.03,-1.51,-1.79,0,*59
1496876848.63,44672,18.06,73950.0,-0.01,-1.63,-1.87,0,*58
1496876849.84,44673,18.06,73952.0,-0.03,-1.75,-1.87,0,*5C
1496876851.07,44674,18.06,73952.0,-0.01,-1.63,-1.87,0,*5E
1496876852.28,44675,18.06,73952.5,-0.03,-1.63,-1.87,0,*5D
1496876853.48,44676,18.06,73952.0,-0.03,-1.63,-1.91,0,*59
1496876854.71,44677,18.06,73950.8,-0.01,-1.59,-1.83,0,*50
1496876855.94,44678,18.06,73952.8,-0.05,-1.59,-1.87,0,*5F
1496876857.14,44679,18.06,73954.5,-0.05,-1.51,-1.79,0,*57
1496876858.35,44680,18.06,73948.5,-0.05,-1.51,-1.75,0,*5D
1496876859.55,44681,18.06,73952.0,-0.05,-1.51,-1.79,0,*50
1496876860.76,44682,18.06,73948.3,-0.05,-1.59,-1.79,0,*5B
1496876861.96,44683,18.06,73952.5,-0.05,-1.59,-1.79,0,*5A
1496876863.17,44684,18.06,73952.3,-0.05,-1.51,-1.75,0,*59
1496876864.37,44685,18.06,73954.0,-0.05,-1.59,-1.75,0,*50
1496876865.57,44686,18.06,73950.0,-0.05,-1.59,-1.79,0,*5F
1496876866.78,44687,18.06,73954.5,-0.05,-1.59,-1.79,0,*5E
1496876867.98,44688,18.06,73952.0,-0.05,-1.51,-1.79,0,*59
1496876869.19,44689,18.06,73952.8,-0.05,-1.59,-1.79,0,*50
1496876870.39,44690,18.06,73950.5,-0.05,-1.51,-1.75,0,*5C
1496876871.6,44691,18.06,73950.8,-0.05,-1.59,-1.75,0,*55
1496876872.8,44692,18.0,73948.8,-0.05,-1.59,-1.79,0,*5A
1496876874.01,44693,18.06,73954.3,-0.05,-1.67,-1.79,0,*56
1496876875.24,44694,18.06,73954.5,-0.05,-1.63,-1.91,0,*53
1496876876.47,44695,18.06,73954.0,-0.05,-1.67,-1.91,0,*56
1496876877.71,44696,18.06,73954.8,-0.05,-1.67,-1.99,0,*5D
1496876878.94,44697,18.06,73950.3,-0.05,-1.63,-1.87,0,*57
1496876880.17,44698,18.06,73952.0,-0.05,-1.67,-1.91,0,*5B
1496876881.41,44699,18.06,73952.0,-0.05,-1.67,-1.91,0,*5A
1496876882.64,44700,18.06,73952.8,-0.05,-1.79,-1.91,0,*54
1496876883.87,44701,18.06,73954.8,-0.05,-1.79,-1.87,0,*52
1496876885.1,44702,18.06,73954.8,-0.03,-1.91,-2.03,0,*5E
1496876886.33,44703,18.06,73948.5,-0.05,-1.79,-1.91,0,*57
1496876887.57,44704,18.06,73954.8,-0.05,-1.79,-1.87,0,*57
1496876888.8,44705,18.06,73954.0,-0.05,-1.75,-1.91,0,*5D
1496876890.06,44706,18.06,73954.0,-0.05,-1.87,-2.03,0,*5B
1496876891.32,44707,18.06,73950.8,-0.05,-1.91,-2.03,0,*5D
1496876892.55,44708,18.06,73952.3,-0.07,-1.95,-2.07,0,*50
1496876893.81,44709,18.06,73954.8,-0.05,-1.91,-2.03,0,*53
1496876895.07,44710,18.06,73954.8,-0.05,-2.03,-2.03,0,*53
1496876896.33,44711,18.06,73954.0,-0.05,-2.03,-2.11,0,*51
1496876897.57,44712,18.06,73954.8,-0.07,-2.03,-2.07,0,*57
1496876898.81,44713,18.06,73950.5,-0.05,-2.03,-2.15,0,*57
1496876900.07,44714,18.06,73952.3,-0.05,-2.11,-2.11,0,*57
1496876901.34,44715,18.06,73954.8,-0.05,-2.03,-2.03,0,*56
1496876902.57,44716,18.06,73954.3,-0.07,-2.03,-2.03,0,*57
1496876903.81,44717,18.06,73956.5,-0.07,-2.03,-2.07,0,*52
1496876905.08,44718,18.06,73952.5,-0.05,-1.99,-1.99,0,*5B
1496876906.35,44719,18.06,73954.8,-0.05,-2.03,-2.07,0,*5E
1496876907.59,44720,18.06,73954.3,-0.07,-2.03,-2.07,0,*56
1496876908.82,44721,18.06,73952.8,-0.07,-2.03,-2.03,0,*53